This is the latest recevied weather packets stored in our database for station/object IR3AS. If no packets are shown the sender has not sent any weather packets the latest 10 day(s).
| Time | Temp. | Humidity | Pressure | Rain* | Wind** | Luminosity | Snow |
|---|---|---|---|---|---|---|---|
| 1787905498 | 16.11° C | 67% | 870.4 hPa | 0 mm | - | - | - |
| 1787905198 | 15.56° C | 70% | 870.4 hPa | 0 mm | - | - | - |
| 1787904899 | 15.56° C | 71% | 870.2 hPa | 0 mm | - | - | - |
| 1787904734 | 15.56° C | 71% | 870.4 hPa | 0 mm | - | - | - |
| 1787904598 | 15.56° C | 71% | 870.4 hPa | 0 mm | - | - | - |
| 1787904344 | 15.56° C | 70% | 870.1 hPa | 0 mm | - | - | - |
| 1787904298 | 15.56° C | 70% | 870.1 hPa | 0 mm | - | - | - |
| 1787903998 | 15° C | 71% | 870.4 hPa | 0 mm | - | - | - |
| 1787903698 | 15° C | 72% | 870 hPa | 0 mm | - | - | - |
| 1787903436 | 15° C | 72% | 869.7 hPa | 0 mm | - | - | - |
| 1787903398 | 15° C | 72% | 869.7 hPa | 0 mm | - | - | - |
| 1787903099 | 15° C | 73% | 869.8 hPa | 0 mm | - | - | - |
| 1787902798 | 15° C | 72% | 870 hPa | 0 mm | - | - | - |
| 1787902499 | 15.56° C | 71% | 870 hPa | 0 mm | - | - | - |
| 1787902198 | 15° C | 71% | 870.3 hPa | 0 mm | - | - | - |
| 1787901898 | 15° C | 72% | 869 hPa | 0 mm | - | - | - |
| 1787901598 | 15° C | 70% | 868 hPa | 0 mm | - | - | - |
| 1787901298 | 15.56° C | 69% | 868 hPa | 0 mm | - | - | - |
| 1787900999 | 15.56° C | 68% | 868.2 hPa | 0 mm | - | - | - |
| 1787900731 | 15.56° C | 68% | 867.7 hPa | 0 mm | - | - | - |
| 1787900698 | 15.56° C | 68% | 867.7 hPa | 0 mm | - | - | - |
| 1787900398 | 15.56° C | 67% | 867.1 hPa | 0 mm | - | - | - |
| 1787900099 | 15.56° C | 70% | 867.4 hPa | 0 mm | - | - | - |
| 1787899798 | 15.56° C | 70% | 867.7 hPa | 0 mm | - | - | - |
| 1787899498 | 15.56° C | 72% | 868.3 hPa | 0 mm | - | - | - |
* Rain latest hour (hover to see other rain measurements)
** Current wind speed in m/s (hover to see current wind gust speed)